Location: Waco, TX
(31.5480°N, 97.1670°W)
Time: 08:21:50
(UTC-05:00)

ISS - Pass Details

Date: 19 October 2019
Orbit: 411 x 421 km, 51.6° (Epoch: 18 October)

Event Time Altitude Azimuth Distance (km) Brightness Sun altitude
Rises 14:51:54 0° 336° (NNW) 2,349 -0.2 42.2°
Reaches altitude 10° 14:55:53 10° 23° (NNE) 1,480 -1.3 41.7°
Maximum altitude 14:56:16 10° 30° (NNE) 1,471 -1.3 41.6°
Drops below altitude 10° 14:56:40 10° 37° (NE) 1,479 -1.3 41.6°
Sets 15:00:38 0° 84° (E) 2,335 -0.3 41.1°
